TimeGMT,TemperatureF,Dew PointF,Humidity,Sea Level PressureIn,VisibilityMPH,Wind Direction,Wind SpeedMPH,Gust SpeedMPH,PrecipitationIn,Events,Conditions,WindDirDegrees,DateUTC
12:00 AM,39,37,90,30.07,,West,8.9,,,,,260,2013-02-15 00:00:00
6:00 AM,37,37,100,30.09,19,SW,6.7,,,,Mostly Cloudy,220,2013-02-15 06:00:00
6:00 AM,37.4,37.4,100,30.06,6.2,SW,5.8,-,N/A,,Mostly Cloudy,220,2013-02-15 06:00:00
7:00 AM,37.4,37.4,100,30.06,6.2,SSW,4.6,-,N/A,,Mostly Cloudy,210,2013-02-15 07:00:00
8:00 AM,39.2,37.4,93,30.06,6.2,SSW,4.6,-,N/A,,Mostly Cloudy,210,2013-02-15 08:00:00
8:30 AM,39.2,37.4,93,30.06,6.2,SSW,4.6,-,N/A,,Mostly Cloudy,210,2013-02-15 08:30:00
9:00 AM,37.4,37.4,100,30.06,6.2,South,4.6,-,N/A,,Mostly Cloudy,190,2013-02-15 09:00:00
9:30 AM,39.2,37.4,93,30.06,6.2,SSW,4.6,-,N/A,,Mostly Cloudy,200,2013-02-15 09:30:00
10:00 AM,41.0,39.2,93,30.06,6.2,South,4.6,-,N/A,,Mostly Cloudy,190,2013-02-15 10:00:00
10:30 AM,41.0,39.2,93,30.06,6.2,SSW,4.6,-,N/A,,Mostly Cloudy,200,2013-02-15 10:30:00
11:00 AM,41.0,41.0,100,30.09,6.2,South,3.5,-,N/A,,Mostly Cloudy,190,2013-02-15 11:00:00
11:30 AM,42.8,41.0,93,30.09,6.2,South,4.6,-,N/A,,Mostly Cloudy,180,2013-02-15 11:30:00
12:00 PM,45,41,81,30.11,25,South,4.5,,,,Partly Cloudy,170,2013-02-15 12:00:00
12:00 PM,44.6,41.0,87,30.06,6.2,South,4.6,-,N/A,,Mostly Cloudy,170,2013-02-15 12:00:00
12:30 PM,44.6,39.2,81,30.06,6.2,South,8.1,-,N/A,,Mostly Cloudy,190,2013-02-15 12:30:00
1:00 PM,44.6,39.2,81,30.06,6.2,South,8.1,-,N/A,,Mostly Cloudy,180,2013-02-15 13:00:00
1:30 PM,46.4,39.2,76,30.06,6.2,South,9.2,-,N/A,,Mostly Cloudy,190,2013-02-15 13:30:00
2:00 PM,44.6,39.2,81,30.06,6.2,South,8.1,-,N/A,,Mostly Cloudy,190,2013-02-15 14:00:00
2:30 PM,44.6,39.2,81,30.04,6.2,South,9.2,-,N/A,,Mostly Cloudy,190,2013-02-15 14:30:00
3:00 PM,46.4,37.4,71,30.04,6.2,South,10.4,-,N/A,,Mostly Cloudy,180,2013-02-15 15:00:00
3:30 PM,44.6,37.4,76,30.04,6.2,South,9.2,-,N/A,,Mostly Cloudy,180,2013-02-15 15:30:00
4:00 PM,44.6,37.4,76,30.04,6.2,South,9.2,-,N/A,,Mostly Cloudy,170,2013-02-15 16:00:00
4:30 PM,44.6,37.4,76,30.04,6.2,South,8.1,-,N/A,,Overcast,170,2013-02-15 16:30:00
5:00 PM,42.8,41.0,93,30.04,6.2,South,9.2,-,N/A,Rain,Light Rain,170,2013-02-15 17:00:00
6:00 PM,42,40,90,30.07,19,SSE,8.9,,,Rain,Light Rain,150,2013-02-15 18:00:00
6:00 PM,41.0,41.0,100,30.04,6.2,SSE,9.2,-,N/A,,Overcast,150,2013-02-15 18:00:00